Flag for Slovakia Weather past 2 weeks in Bratislava, Slovakia

55 °F

Passing clouds.

Feels Like: 55 °F
Forecast: 48 / 58 °F
Wind: 5 mph from North

Location: Bratislava Ivanka

Current Time: Oct 9, 2015 at 8:18:48 PM

Latest Report: Oct 9, 2015 at 8:00 PM

Visibility: N/A

Pressure: 30.09 "Hg

Humidity: 82%

Dew point: 50 °F

Location of BratislavaLocation

Historic Weather in Bratislava — Graph


Bratislava temperature yesterday

Maximum temperature yesterday: 59 °F (at 10:00 AM)
Minimum temperature yesterday: 55 °F (at 12:30 AM)
Average temperature yesterday: 57 °F

Past Weeks' High & Low Weather Summary

High72 °F (Oct 4, 2:30 PM)100% (Oct 6, 2:30 AM)30.51 "Hg (Oct 6, 2:30 AM)
Low39 °F (Oct 2, 5:00 AM)32% (Sep 29, 3:00 PM)29.83 "Hg (Oct 6, 5:00 PM)
Average57 °F72%30.17 "Hg
* Reported Sep 24 7:00 PM — Oct 9 7:00 PM, Bratislava, Weather by CustomWeather, © 2015

Note: Actual official high and low records may vary slightly from our data, if they occured in-between our weather recording intervals... More about our weather records


Bratislava weather history for previous 24 hours

Time TempWeatherWind HumidityBarometerVisibility
7:00 PM
Fri, Oct 9
55 °FPartly sunny.5 mph82%30.09 "HgN/A
6:30 PM57 °FBroken clouds.6 mph77%30.09 "HgN/A
6:00 PM57 °FPartly sunny.5 mph82%30.09 "HgN/A
5:30 PM59 °FBroken clouds.2 mph77%30.09 "HgN/A
4:30 PM59 °FBroken clouds.5 mph77%30.09 "HgN/A
4:00 PM59 °FBroken clouds.6 mph77%30.09 "HgN/A
3:30 PM61 °FBroken clouds.2 mph72%30.09 "HgN/A
3:00 PM61 °FBroken clouds.2 mph72%30.09 "HgN/A
2:30 PM61 °FBroken clouds.2 mph77%30.09 "HgN/A
2:00 PM59 °FBroken clouds.1 mph82%30.09 "HgN/A
1:30 PM59 °FBroken clouds.3 mph77%30.09 "HgN/A
1:00 PM59 °FBroken clouds.7 mph77%30.09 "HgN/A
12:30 PM61 °FBroken clouds.7 mph72%30.09 "HgN/A
12:00 PM59 °FBroken clouds.5 mph82%30.09 "HgN/A
11:30 AM59 °FBroken clouds.5 mph82%30.09 "HgN/A
11:00 AM59 °FMore clouds than sun.5 mph82%30.09 "HgN/A
10:30 AM57 °FMore clouds than sun.5 mph94%30.09 "HgN/A
10:00 AM57 °FMore clouds than sun.5 mph88%30.09 "Hg5 mi
9:30 AM57 °FMostly cloudy.6 mph88%30.09 "Hg5 mi
9:00 AM57 °FMostly cloudy.5 mph88%30.09 "Hg5 mi
8:30 AM57 °FLow clouds.7 mph94%30.09 "Hg5 mi
8:00 AM57 °FLow clouds.6 mph94%30.07 "Hg4 mi
7:00 AM55 °FCool.1 mph94%30.07 "Hg4 mi
6:30 AM55 °FCool.1 mph94%30.07 "Hg1 mi
6:00 AM55 °FCool.1 mph94%30.07 "Hg1 mi
5:30 AM55 °FCool.2 mph94%30.07 "Hg1 mi
5:00 AM55 °FFog.No wind94%30.07 "Hg1 mi
4:30 AM55 °FLow clouds.1 mph94%30.07 "Hg1 mi
4:00 AM55 °FFog.1 mph94%30.07 "Hg1 mi
3:30 AM55 °FFog.No wind94%30.07 "Hg2 mi
3:00 AM55 °FFog.2 mph94%30.07 "Hg2 mi
2:30 AM55 °FMostly cloudy.2 mph94%30.07 "Hg4 mi
2:00 AM55 °FMostly cloudy.2 mph94%30.07 "HgN/A
1:30 AM57 °FLow clouds.2 mph94%30.07 "HgN/A
1:00 AM55 °FMostly cloudy.1 mph94%30.07 "HgN/A
12:30 AM55 °FMostly cloudy.1 mph94%30.07 "HgN/A
12:00 AM57 °FLow clouds.3 mph88%30.07 "HgN/A
11:30 PM
Thu, Oct 8
57 °FLow clouds.3 mph88%30.07 "HgN/A
11:00 PM57 °FLow clouds.3 mph88%30.07 "HgN/A
10:30 PM55 °FMostly cloudy.5 mph94%30.07 "HgN/A
10:00 PM57 °FLight rain. Mostly cloudy.7 mph94%30.07 "HgN/A
9:30 PM55 °FLight rain. Partly cloudy.5 mph94%30.07 "HgN/A
9:00 PM57 °FLight rain. Overcast.5 mph88%30.07 "HgN/A
8:30 PM57 °FLight rain. Partly cloudy.6 mph88%30.07 "HgN/A
8:00 PM57 °FLight rain. Mostly cloudy.5 mph88%30.07 "HgN/A
Weather by CustomWeather, © 2015

See weather overviewHow to use our weather pages